Time,TemperatureF,DewpointF,PressureIn,WindDirection,WindDirectionDegrees,WindSpeedMPH,WindSpeedGustMPH,Humidity,HourlyPrecipIn,Conditions,Clouds,dailyrainin,SoftwareType,DateUTC
2013-01-08 00:00:00,49.5,41.1,30.38,North,0,0.0,0.0,73,0.00,,,0.00,WUHU216HW,2013-01-08 05:00:00,
2013-01-08 00:01:00,49.5,41.5,30.38,North,0,0.0,0.0,74,0.00,,,0.00,WUHU216HW,2013-01-08 05:01:00,
2013-01-08 00:03:00,49.5,41.5,30.38,North,0,0.0,0.0,74,0.00,,,0.00,WUHU216HW,2013-01-08 05:03:00,
2013-01-08 00:08:00,49.5,41.1,30.37,North,0,0.0,0.0,73,0.00,,,0.00,WUHU216HW,2013-01-08 05:08:00,
2013-01-08 00:13:00,49.5,40.9,30.37,North,0,0.0,0.0,72,0.00,,,0.00,WUHU216HW,2013-01-08 05:13:00,
2013-01-08 00:18:00,49.5,41.1,30.37,North,0,0.0,0.0,73,0.00,,,0.00,WUHU216HW,2013-01-08 05:18:00,
2013-01-08 00:23:00,49.7,41.7,30.37,North,0,0.0,0.0,74,0.00,,,0.00,WUHU216HW,2013-01-08 05:23:00,
2013-01-08 00:28:00,49.5,41.1,30.37,North,0,0.0,0.0,73,0.00,,,0.00,WUHU216HW,2013-01-08 05:28:00,
2013-01-08 00:33:00,49.5,41.1,30.37,North,0,0.0,0.0,73,0.00,,,0.00,WUHU216HW,2013-01-08 05:33:00,
2013-01-08 00:38:00,49.5,41.1,30.37,North,0,0.0,0.0,73,0.00,,,0.00,WUHU216HW,2013-01-08 05:38:00,
2013-01-08 00:43:00,49.5,41.1,30.37,North,0,0.0,0.0,73,0.00,,,0.00,WUHU216HW,2013-01-08 05:43:00,
2013-01-08 00:48:00,49.5,41.1,30.37,North,0,0.0,0.0,73,0.00,,,0.00,WUHU216HW,2013-01-08 05:48:00,
2013-01-08 00:53:00,49.5,41.5,30.38,North,0,0.0,0.0,74,0.00,,,0.00,WUHU216HW,2013-01-08 05:53:00,
2013-01-08 00:58:00,49.5,41.5,30.37,North,0,0.0,0.0,74,0.00,,,0.00,WUHU216HW,2013-01-08 05:58:00,
2013-01-08 01:03:00,49.3,41.3,30.37,North,0,0.0,0.0,74,0.00,,,0.00,WUHU216HW,2013-01-08 06:03:00,
2013-01-08 01:09:00,49.3,41.3,30.37,North,0,0.0,0.0,74,0.00,,,0.00,WUHU216HW,2013-01-08 06:09:00,
2013-01-08 01:14:00,49.3,41.3,30.37,North,0,0.0,0.0,74,0.00,,,0.00,WUHU216HW,2013-01-08 06:14:00,
2013-01-08 01:19:00,49.3,41.0,30.37,North,0,0.0,0.0,73,0.00,,,0.00,WUHU216HW,2013-01-08 06:19:00,
2013-01-08 01:24:00,49.3,41.3,30.37,North,0,0.0,0.0,74,0.00,,,0.00,WUHU216HW,2013-01-08 06:24:00,
2013-01-08 01:29:00,49.3,41.3,30.37,North,0,0.0,0.0,74,0.00,,,0.00,WUHU216HW,2013-01-08 06:29:00,
2013-01-08 01:34:00,49.3,41.3,30.37,North,0,0.0,0.0,74,0.00,,,0.00,WUHU216HW,2013-01-08 06:34:00,
2013-01-08 01:39:00,49.3,41.3,30.37,North,0,0.0,0.0,74,0.00,,,0.00,WUHU216HW,2013-01-08 06:39:00,
2013-01-08 01:44:00,49.3,41.7,30.37,North,0,0.0,0.0,75,0.00,,,0.00,WUHU216HW,2013-01-08 06:44:00,
2013-01-08 01:49:00,49.3,41.7,30.37,North,0,0.0,0.0,75,0.00,,,0.00,WUHU216HW,2013-01-08 06:49:00,
2013-01-08 01:54:00,49.3,41.3,30.37,North,0,0.0,0.0,74,0.00,,,0.00,WUHU216HW,2013-01-08 06:54:00,
2013-01-08 01:59:00,49.5,41.5,30.36,North,0,0.0,0.0,74,0.00,,,0.00,WUHU216HW,2013-01-08 06:59:00,
2013-01-08 02:04:00,49.7,41.7,30.36,North,0,0.0,0.0,74,0.00,,,0.00,WUHU216HW,2013-01-08 07:04:00,
2013-01-08 02:09:00,49.7,41.7,30.36,North,0,0.0,0.0,74,0.00,,,0.00,WUHU216HW,2013-01-08 07:09:00,
2013-01-08 02:14:00,49.7,41.7,30.36,North,0,0.0,0.0,74,0.00,,,0.00,WUHU216HW,2013-01-08 07:14:00,
2013-01-08 02:19:00,49.7,42.0,30.36,North,0,0.0,0.0,75,0.00,,,0.00,WUHU216HW,2013-01-08 07:19:00,
2013-01-08 02:25:00,49.9,42.2,30.36,North,0,0.0,0.0,75,0.00,,,0.00,WUHU216HW,2013-01-08 07:25:00,
2013-01-08 02:30:00,49.9,42.2,30.36,North,0,0.0,0.0,75,0.00,,,0.00,WUHU216HW,2013-01-08 07:30:00,
2013-01-08 02:35:00,50.0,42.4,30.36,North,0,0.0,0.0,75,0.00,,,0.00,WUHU216HW,2013-01-08 07:35:00,
2013-01-08 02:40:00,50.0,42.4,30.35,North,0,0.0,0.0,75,0.00,,,0.00,WUHU216HW,2013-01-08 07:40:00,
2013-01-08 02:45:00,50.0,42.4,30.35,North,0,0.0,0.0,75,0.00,,,0.00,WUHU216HW,2013-01-08 07:45:00,
2013-01-08 02:50:00,50.0,42.8,30.35,North,0,0.0,0.0,76,0.00,,,0.00,WUHU216HW,2013-01-08 07:50:00,
2013-01-08 02:55:00,50.0,42.8,30.35,North,0,0.0,0.0,76,0.00,,,0.00,WUHU216HW,2013-01-08 07:55:00,
2013-01-08 03:00:00,50.0,43.1,30.35,North,0,0.0,0.0,77,0.00,,,0.00,WUHU216HW,2013-01-08 08:00:00,
2013-01-08 03:05:00,50.0,43.1,30.35,North,0,0.0,0.0,77,0.00,,,0.00,WUHU216HW,2013-01-08 08:05:00,
2013-01-08 03:10:00,50.0,43.1,30.35,North,0,0.0,0.0,77,0.00,,,0.00,WUHU216HW,2013-01-08 08:10:00,
2013-01-08 03:16:00,50.0,43.1,30.34,North,0,0.0,0.0,77,0.00,,,0.00,WUHU216HW,2013-01-08 08:16:00,
2013-01-08 03:21:00,50.2,43.3,30.34,North,0,0.0,0.0,77,0.00,,,0.00,WUHU216HW,2013-01-08 08:21:00,
2013-01-08 03:26:00,50.2,43.3,30.34,North,0,0.0,0.0,77,0.00,,,0.00,WUHU216HW,2013-01-08 08:26:00,
2013-01-08 03:31:00,50.2,43.3,30.35,North,0,0.0,0.0,77,0.00,,,0.00,WUHU216HW,2013-01-08 08:31:00,
2013-01-08 03:36:00,50.2,43.3,30.35,North,0,0.0,0.0,77,0.00,,,0.00,WUHU216HW,2013-01-08 08:36:00,
2013-01-08 03:41:00,50.4,43.7,30.35,North,0,0.0,0.0,78,0.00,,,0.00,WUHU216HW,2013-01-08 08:41:00,
2013-01-08 03:46:00,50.4,43.7,30.35,North,0,0.0,0.0,78,0.00,,,0.00,WUHU216HW,2013-01-08 08:46:00,
2013-01-08 03:51:00,50.4,43.7,30.34,North,0,0.0,0.0,78,0.00,,,0.00,WUHU216HW,2013-01-08 08:51:00,
2013-01-08 03:57:00,50.4,43.7,30.34,North,0,0.0,0.0,78,0.00,,,0.00,WUHU216HW,2013-01-08 08:57:00,
2013-01-08 04:02:00,50.4,43.7,30.34,North,0,0.0,0.0,78,0.00,,,0.00,WUHU216HW,2013-01-08 09:02:00,
2013-01-08 04:07:00,50.4,43.7,30.34,North,0,0.0,0.0,78,0.00,,,0.00,WUHU216HW,2013-01-08 09:07:00,
2013-01-08 04:12:00,50.4,43.7,30.34,North,0,0.0,0.0,78,0.00,,,0.00,WUHU216HW,2013-01-08 09:12:00,
2013-01-08 04:17:00,50.6,43.9,30.34,North,0,0.0,0.0,78,0.00,,,0.00,WUHU216HW,2013-01-08 09:17:00,
2013-01-08 04:22:00,50.6,43.9,30.34,North,0,0.0,0.0,78,0.00,,,0.00,WUHU216HW,2013-01-08 09:22:00,
2013-01-08 04:27:00,50.4,43.7,30.34,North,0,0.0,0.0,78,0.00,,,0.00,WUHU216HW,2013-01-08 09:27:00,
2013-01-08 04:32:00,50.6,43.9,30.34,North,0,0.0,0.0,78,0.00,,,0.00,WUHU216HW,2013-01-08 09:32:00,
2013-01-08 04:37:00,50.6,43.9,30.34,North,0,0.0,0.0,78,0.00,,,0.00,WUHU216HW,2013-01-08 09:37:00,
2013-01-08 04:42:00,50.8,44.1,30.34,North,0,0.0,0.0,78,0.00,,,0.00,WUHU216HW,2013-01-08 09:42:00,
2013-01-08 04:47:00,50.8,44.1,30.34,North,0,0.0,0.0,78,0.00,,,0.00,WUHU216HW,2013-01-08 09:47:00,
2013-01-08 04:53:00,50.8,44.1,30.34,North,0,0.0,0.0,78,0.00,,,0.00,WUHU216HW,2013-01-08 09:53:00,
2013-01-08 04:58:00,50.8,44.1,30.34,North,0,0.0,0.0,78,0.00,,,0.00,WUHU216HW,2013-01-08 09:58:00,
2013-01-08 05:03:00,50.0,43.4,30.34,North,0,0.0,0.0,78,0.00,,,0.00,WUHU216HW,2013-01-08 10:03:00,
2013-01-08 05:08:00,49.3,42.7,30.35,North,0,0.0,0.0,78,0.00,,,0.00,WUHU216HW,2013-01-08 10:08:00,
2013-01-08 05:13:00,49.7,43.4,30.35,North,0,0.0,0.0,79,0.00,,,0.00,WUHU216HW,2013-01-08 10:13:00,
2013-01-08 05:18:00,49.3,43.0,30.35,North,0,0.0,0.0,79,0.00,,,0.00,WUHU216HW,2013-01-08 10:18:00,
2013-01-08 05:23:00,49.0,42.3,30.35,North,0,0.0,0.0,78,0.00,,,0.00,WUHU216HW,2013-01-08 10:23:00,
2013-01-08 05:28:00,48.1,41.5,30.35,North,0,0.0,0.0,78,0.00,,,0.00,WUHU216HW,2013-01-08 10:28:00,
2013-01-08 05:33:00,46.6,39.8,30.35,North,0,0.0,0.0,77,0.00,,,0.00,WUHU216HW,2013-01-08 10:33:00,
2013-01-08 05:38:00,45.4,38.9,30.35,North,0,0.0,0.0,78,0.00,,,0.00,WUHU216HW,2013-01-08 10:38:00,
2013-01-08 05:43:00,44.3,37.8,30.36,North,0,0.0,0.0,78,0.00,,,0.00,WUHU216HW,2013-01-08 10:43:00,
2013-01-08 05:48:00,43.9,37.5,30.36,North,0,0.0,0.0,78,0.00,,,0.00,WUHU216HW,2013-01-08 10:48:00,
2013-01-08 05:53:00,43.6,37.2,30.36,North,0,0.0,0.0,78,0.00,,,0.00,WUHU216HW,2013-01-08 10:53:00,
2013-01-08 05:59:00,43.6,37.4,30.36,North,0,0.0,0.0,79,0.00,,,0.00,WUHU216HW,2013-01-08 10:59:00,
2013-01-08 06:04:00,43.2,37.1,30.36,North,0,0.0,0.0,79,0.00,,,0.00,WUHU216HW,2013-01-08 11:04:00,
2013-01-08 06:09:00,43.0,36.9,30.36,North,0,0.0,0.0,79,0.00,,,0.00,WUHU216HW,2013-01-08 11:09:00,
2013-01-08 06:14:00,43.2,37.1,30.36,North,0,0.0,0.0,79,0.00,,,0.00,WUHU216HW,2013-01-08 11:14:00,
2013-01-08 06:19:00,43.4,37.3,30.37,North,0,0.0,0.0,79,0.00,,,0.00,WUHU216HW,2013-01-08 11:19:00,
2013-01-08 06:24:00,43.4,37.3,30.37,North,0,0.0,0.0,79,0.00,,,0.00,WUHU216HW,2013-01-08 11:24:00,
2013-01-08 06:29:00,43.4,37.3,30.37,North,0,0.0,0.0,79,0.00,,,0.00,WUHU216HW,2013-01-08 11:29:00,
2013-01-08 06:34:00,43.7,37.6,30.37,North,0,0.0,0.0,79,0.00,,,0.00,WUHU216HW,2013-01-08 11:34:00,
2013-01-08 06:39:00,44.1,38.0,30.37,North,0,0.0,0.0,79,0.00,,,0.00,WUHU216HW,2013-01-08 11:39:00,
2013-01-08 06:45:00,44.1,38.0,30.37,North,0,0.0,0.0,79,0.00,,,0.00,WUHU216HW,2013-01-08 11:45:00,
2013-01-08 06:50:00,44.3,38.2,30.37,North,0,0.0,0.0,79,0.00,,,0.00,WUHU216HW,2013-01-08 11:50:00,
2013-01-08 06:55:00,44.6,38.5,30.38,North,0,0.0,0.0,79,0.00,,,0.00,WUHU216HW,2013-01-08 11:55:00,
2013-01-08 07:00:00,44.8,38.7,30.38,North,0,0.0,0.0,79,0.00,,,0.00,WUHU216HW,2013-01-08 12:00:00,
2013-01-08 07:05:00,44.6,38.5,30.39,North,0,0.0,0.0,79,0.00,,,0.00,WUHU216HW,2013-01-08 12:05:00,
2013-01-08 07:10:00,44.5,38.3,30.39,North,0,0.0,0.0,79,0.00,,,0.00,WUHU216HW,2013-01-08 12:10:00,
2013-01-08 07:15:00,44.5,38.3,30.38,North,0,0.0,0.0,79,0.00,,,0.00,WUHU216HW,2013-01-08 12:15:00,
2013-01-08 07:21:00,44.5,38.3,30.38,North,0,0.0,0.0,79,0.00,,,0.00,WUHU216HW,2013-01-08 12:21:00,
2013-01-08 07:25:00,44.5,38.3,30.38,North,0,0.0,0.0,79,0.00,,,0.00,WUHU216HW,2013-01-08 12:25:00,
2013-01-08 07:31:00,44.5,38.3,30.39,North,0,0.0,0.0,79,0.00,,,0.00,WUHU216HW,2013-01-08 12:31:00,
2013-01-08 07:36:00,44.5,38.3,30.39,North,0,0.0,0.0,79,0.00,,,0.00,WUHU216HW,2013-01-08 12:36:00,
2013-01-08 07:41:00,44.6,38.5,30.40,North,0,0.0,0.0,79,0.00,,,0.00,WUHU216HW,2013-01-08 12:41:00,
2013-01-08 07:46:00,45.0,38.9,30.40,North,0,0.0,0.0,79,0.00,,,0.00,WUHU216HW,2013-01-08 12:46:00,
2013-01-08 07:51:00,44.8,38.7,30.39,North,0,0.0,0.0,79,0.00,,,0.00,WUHU216HW,2013-01-08 12:51:00,
2013-01-08 07:56:00,44.8,38.7,30.39,North,0,0.0,0.0,79,0.00,,,0.00,WUHU216HW,2013-01-08 12:56:00,
2013-01-08 08:01:00,45.0,38.9,30.40,North,0,0.0,0.0,79,0.00,,,0.00,WUHU216HW,2013-01-08 13:01:00,
2013-01-08 08:06:00,45.2,39.1,30.40,North,0,0.0,0.0,79,0.00,,,0.00,WUHU216HW,2013-01-08 13:06:00,
2013-01-08 08:12:00,45.2,39.1,30.41,North,0,0.0,0.0,79,0.00,,,0.00,WUHU216HW,2013-01-08 13:12:00,
2013-01-08 08:17:00,45.5,39.4,30.41,North,0,0.0,0.0,79,0.00,,,0.00,WUHU216HW,2013-01-08 13:17:00,
2013-01-08 08:22:00,45.7,39.6,30.41,North,0,0.0,0.0,79,0.00,,,0.00,WUHU216HW,2013-01-08 13:22:00,
2013-01-08 08:27:00,45.9,39.8,30.41,North,0,0.0,0.0,79,0.00,,,0.00,WUHU216HW,2013-01-08 13:27:00,
2013-01-08 08:32:00,45.9,39.8,30.41,North,0,0.0,0.0,79,0.00,,,0.00,WUHU216HW,2013-01-08 13:32:00,
2013-01-08 08:37:00,46.1,40.0,30.41,North,0,0.0,0.0,79,0.00,,,0.00,WUHU216HW,2013-01-08 13:37:00,
2013-01-08 08:42:00,46.1,40.0,30.42,North,0,0.0,0.0,79,0.00,,,0.00,WUHU216HW,2013-01-08 13:42:00,
2013-01-08 08:47:00,46.1,40.0,30.42,North,0,0.0,0.0,79,0.00,,,0.00,WUHU216HW,2013-01-08 13:47:00,
2013-01-08 08:52:00,46.3,40.1,30.42,North,0,0.0,0.0,79,0.00,,,0.00,WUHU216HW,2013-01-08 13:52:00,
2013-01-08 08:57:00,46.3,40.1,30.42,North,0,0.0,0.0,79,0.00,,,0.00,WUHU216HW,2013-01-08 13:57:00,
2013-01-08 09:02:00,46.3,40.1,30.42,North,0,0.0,0.0,79,0.00,,,0.00,WUHU216HW,2013-01-08 14:02:00,
2013-01-08 09:07:00,46.4,40.3,30.42,North,0,0.0,0.0,79,0.00,,,0.00,WUHU216HW,2013-01-08 14:07:00,
2013-01-08 09:12:00,46.6,40.5,30.42,North,0,0.0,0.0,79,0.00,,,0.00,WUHU216HW,2013-01-08 14:12:00,
2013-01-08 09:17:00,46.4,40.3,30.42,North,0,0.0,0.0,79,0.00,,,0.00,WUHU216HW,2013-01-08 14:17:00,
2013-01-08 09:22:00,46.6,40.5,30.42,North,0,0.0,0.0,79,0.00,,,0.00,WUHU216HW,2013-01-08 14:22:00,
2013-01-08 09:27:00,46.8,40.7,30.43,North,0,0.0,0.0,79,0.00,,,0.00,WUHU216HW,2013-01-08 14:27:00,
2013-01-08 09:32:00,47.2,41.3,30.42,North,0,0.0,0.0,80,0.00,,,0.00,WUHU216HW,2013-01-08 14:32:00,
2013-01-08 09:38:00,47.5,41.7,30.42,North,0,0.0,0.0,80,0.00,,,0.00,WUHU216HW,2013-01-08 14:38:00,
2013-01-08 09:43:00,47.7,41.9,30.42,North,0,0.0,0.0,80,0.00,,,0.00,WUHU216HW,2013-01-08 14:43:00,
2013-01-08 09:48:00,47.9,41.9,30.43,North,0,0.0,0.0,80,0.00,,,0.00,WUHU216HW,2013-01-08 14:48:00,
2013-01-08 09:53:00,48.1,42.1,30.43,North,0,0.0,0.0,80,0.00,,,0.00,WUHU216HW,2013-01-08 14:53:00,
2013-01-08 09:58:00,48.1,42.1,30.43,North,0,0.0,0.0,80,0.00,,,0.00,WUHU216HW,2013-01-08 14:58:00,
2013-01-08 10:03:00,48.2,42.3,30.43,North,0,0.0,0.0,80,0.00,,,0.00,WUHU216HW,2013-01-08 15:03:00,
2013-01-08 10:08:00,48.4,42.5,30.43,North,0,0.0,0.0,80,0.00,,,0.00,WUHU216HW,2013-01-08 15:08:00,
2013-01-08 10:13:00,48.6,42.7,30.43,North,0,0.0,0.0,80,0.00,,,0.00,WUHU216HW,2013-01-08 15:13:00,
2013-01-08 10:18:00,49.0,43.0,30.43,North,0,0.0,0.0,80,0.00,,,0.00,WUHU216HW,2013-01-08 15:18:00,
2013-01-08 10:23:00,49.1,43.2,30.44,North,0,0.0,0.0,80,0.00,,,0.00,WUHU216HW,2013-01-08 15:23:00,
2013-01-08 10:28:00,49.5,43.6,30.43,North,0,0.0,0.0,80,0.00,,,0.00,WUHU216HW,2013-01-08 15:28:00,
2013-01-08 10:33:00,49.9,43.9,30.43,North,0,0.0,0.0,80,0.00,,,0.00,WUHU216HW,2013-01-08 15:33:00,
2013-01-08 10:38:00,49.9,43.9,30.43,North,0,0.0,0.0,80,0.00,,,0.00,WUHU216HW,2013-01-08 15:38:00,
2013-01-08 10:43:00,49.9,43.6,30.42,North,0,0.0,0.0,79,0.00,,,0.00,WUHU216HW,2013-01-08 15:43:00,
2013-01-08 10:48:00,49.9,43.6,30.42,North,0,0.0,0.0,79,0.00,,,0.00,WUHU216HW,2013-01-08 15:48:00,
2013-01-08 10:53:00,50.0,43.7,30.42,North,0,0.0,0.0,79,0.00,,,0.00,WUHU216HW,2013-01-08 15:53:00,
2013-01-08 10:58:00,50.0,43.7,30.41,North,0,0.0,0.0,79,0.00,,,0.00,WUHU216HW,2013-01-08 15:58:00,
2013-01-08 11:03:00,50.0,43.7,30.42,North,0,0.0,0.0,79,0.00,,,0.00,WUHU216HW,2013-01-08 16:03:00,
2013-01-08 11:08:00,50.2,43.9,30.41,North,0,0.0,0.0,79,0.00,,,0.00,WUHU216HW,2013-01-08 16:08:00,
2013-01-08 11:13:00,50.8,44.5,30.41,North,0,0.0,0.0,79,0.00,,,0.00,WUHU216HW,2013-01-08 16:13:00,
2013-01-08 11:18:00,51.8,45.5,30.41,North,0,0.0,0.0,79,0.00,,,0.00,WUHU216HW,2013-01-08 16:18:00,
2013-01-08 11:23:00,51.8,45.2,30.40,North,0,0.0,0.0,78,0.00,,,0.00,WUHU216HW,2013-01-08 16:23:00,
2013-01-08 11:28:00,52.2,45.5,30.39,North,0,0.0,0.0,78,0.00,,,0.00,WUHU216HW,2013-01-08 16:28:00,
2013-01-08 11:33:00,52.9,46.3,30.40,North,0,0.0,0.0,78,0.00,,,0.00,WUHU216HW,2013-01-08 16:33:00,
2013-01-08 11:38:00,53.6,47.0,30.39,North,0,0.0,0.0,78,0.00,,,0.00,WUHU216HW,2013-01-08 16:38:00,
2013-01-08 11:43:00,54.0,47.4,30.39,North,0,0.0,0.0,78,0.00,,,0.00,WUHU216HW,2013-01-08 16:43:00,
2013-01-08 11:48:00,54.2,47.2,30.39,North,0,0.0,0.0,77,0.00,,,0.00,WUHU216HW,2013-01-08 16:48:00,
2013-01-08 11:53:00,53.8,46.8,30.38,North,0,0.0,0.0,77,0.00,,,0.00,WUHU216HW,2013-01-08 16:53:00,
2013-01-08 11:58:00,54.0,47.0,30.38,North,0,0.0,0.0,77,0.00,,,0.00,WUHU216HW,2013-01-08 16:58:00,
2013-01-08 12:03:00,54.4,47.3,30.38,North,0,0.0,0.0,77,0.00,,,0.00,WUHU216HW,2013-01-08 17:03:00,
2013-01-08 12:08:00,54.9,48.2,30.38,North,0,0.0,0.0,78,0.00,,,0.00,WUHU216HW,2013-01-08 17:08:00,
2013-01-08 12:13:00,54.7,48.0,30.38,North,0,0.0,0.0,78,0.00,,,0.00,WUHU216HW,2013-01-08 17:13:00,
2013-01-08 12:18:00,55.4,48.6,30.38,North,0,0.0,0.0,78,0.00,,,0.00,WUHU216HW,2013-01-08 17:18:00,
2013-01-08 12:23:00,56.0,48.8,30.38,North,0,0.0,0.0,77,0.00,,,0.00,WUHU216HW,2013-01-08 17:23:00,
2013-01-08 12:28:00,56.9,49.7,30.37,North,0,0.0,0.0,77,0.00,,,0.00,WUHU216HW,2013-01-08 17:28:00,
2013-01-08 12:33:00,57.2,49.3,30.37,North,0,0.0,0.0,75,0.00,,,0.00,WUHU216HW,2013-01-08 17:33:00,
2013-01-08 12:38:00,57.2,49.3,30.36,North,0,0.0,0.0,75,0.00,,,0.00,WUHU216HW,2013-01-08 17:38:00,
2013-01-08 12:43:00,57.2,49.7,30.36,North,0,0.0,0.0,76,0.00,,,0.00,WUHU216HW,2013-01-08 17:43:00,
2013-01-08 12:48:00,57.2,49.3,30.36,North,0,0.0,0.0,75,0.00,,,0.00,WUHU216HW,2013-01-08 17:48:00,
2013-01-08 12:53:00,57.2,49.3,30.36,North,0,0.0,0.0,75,0.00,,,0.00,WUHU216HW,2013-01-08 17:53:00,
2013-01-08 12:58:00,57.6,50.0,30.36,North,0,0.0,0.0,76,0.00,,,0.00,WUHU216HW,2013-01-08 17:58:00,
2013-01-08 13:03:00,57.8,49.9,30.36,North,0,0.0,0.0,75,0.00,,,0.00,WUHU216HW,2013-01-08 18:03:00,
2013-01-08 13:08:00,58.0,50.0,30.36,North,0,0.0,0.0,75,0.00,,,0.00,WUHU216HW,2013-01-08 18:08:00,
2013-01-08 13:13:00,58.3,50.4,30.36,North,0,0.0,0.0,75,0.00,,,0.00,WUHU216HW,2013-01-08 18:13:00,
2013-01-08 13:18:00,58.5,50.6,30.36,North,0,0.0,0.0,75,0.00,,,0.00,WUHU216HW,2013-01-08 18:18:00,
2013-01-08 13:23:00,58.3,50.4,30.36,North,0,0.0,0.0,75,0.00,,,0.00,WUHU216HW,2013-01-08 18:23:00,
2013-01-08 13:28:00,58.1,50.2,30.36,North,0,0.0,0.0,75,0.00,,,0.00,WUHU216HW,2013-01-08 18:28:00,
2013-01-08 13:33:00,58.5,50.6,30.36,North,0,0.0,0.0,75,0.00,,,0.00,WUHU216HW,2013-01-08 18:33:00,
2013-01-08 13:39:00,59.2,51.3,30.36,North,0,0.0,0.0,75,0.00,,,0.00,WUHU216HW,2013-01-08 18:39:00,
2013-01-08 13:44:00,59.8,51.5,30.36,North,0,0.0,0.0,74,0.00,,,0.00,WUHU216HW,2013-01-08 18:44:00,
2013-01-08 13:49:00,59.0,50.8,30.36,North,0,0.0,0.0,74,0.00,,,0.00,WUHU216HW,2013-01-08 18:49:00,
2013-01-08 13:54:00,58.7,50.8,30.36,North,0,0.0,0.0,75,0.00,,,0.00,WUHU216HW,2013-01-08 18:54:00,
2013-01-08 13:59:00,58.9,50.9,30.36,North,0,0.0,0.0,75,0.00,,,0.00,WUHU216HW,2013-01-08 18:59:00,
2013-01-08 14:04:00,59.8,51.8,30.36,North,0,0.0,0.0,75,0.00,,,0.00,WUHU216HW,2013-01-08 19:04:00,
2013-01-08 14:09:00,60.3,52.0,30.36,North,0,0.0,0.0,74,0.00,,,0.00,WUHU216HW,2013-01-08 19:09:00,
2013-01-08 14:14:00,60.1,51.8,30.35,North,0,0.0,0.0,74,0.00,,,0.00,WUHU216HW,2013-01-08 19:14:00,
2013-01-08 14:19:00,59.2,50.9,30.35,North,0,0.0,0.0,74,0.00,,,0.00,WUHU216HW,2013-01-08 19:19:00,
2013-01-08 14:24:00,58.7,50.8,30.35,North,0,0.0,0.0,75,0.00,,,0.00,WUHU216HW,2013-01-08 19:24:00,
2013-01-08 14:29:00,58.5,50.6,30.35,North,0,0.0,0.0,75,0.00,,,0.00,WUHU216HW,2013-01-08 19:29:00,
2013-01-08 14:34:00,58.3,50.8,30.35,North,0,0.0,0.0,76,0.00,,,0.00,WUHU216HW,2013-01-08 19:34:00,
2013-01-08 14:39:00,58.5,50.9,30.35,North,0,0.0,0.0,76,0.00,,,0.00,WUHU216HW,2013-01-08 19:39:00,
2013-01-08 14:44:00,58.7,51.1,30.35,North,0,0.0,0.0,76,0.00,,,0.00,WUHU216HW,2013-01-08 19:44:00,
2013-01-08 14:49:00,58.7,50.8,30.36,North,0,0.0,0.0,75,0.00,,,0.00,WUHU216HW,2013-01-08 19:49:00,
2013-01-08 14:54:00,58.9,51.3,30.36,North,0,0.0,0.0,76,0.00,,,0.00,WUHU216HW,2013-01-08 19:54:00,
2013-01-08 14:59:00,58.7,51.1,30.36,North,0,0.0,0.0,76,0.00,,,0.00,WUHU216HW,2013-01-08 19:59:00,
2013-01-08 15:04:00,58.7,50.8,30.36,North,0,0.0,0.0,75,0.00,,,0.00,WUHU216HW,2013-01-08 20:04:00,
2013-01-08 15:09:00,58.3,50.8,30.36,North,0,0.0,0.0,76,0.00,,,0.00,WUHU216HW,2013-01-08 20:09:00,
2013-01-08 15:15:00,58.3,50.8,30.36,North,0,0.0,0.0,76,0.00,,,0.00,WUHU216HW,2013-01-08 20:15:00,
2013-01-08 15:20:00,58.3,50.8,30.35,North,0,0.0,0.0,76,0.00,,,0.00,WUHU216HW,2013-01-08 20:20:00,
2013-01-08 15:25:00,58.1,50.6,30.36,North,0,0.0,0.0,76,0.00,,,0.00,WUHU216HW,2013-01-08 20:25:00,
2013-01-08 15:30:00,58.0,50.4,30.35,North,0,0.0,0.0,76,0.00,,,0.00,WUHU216HW,2013-01-08 20:30:00,
2013-01-08 15:35:00,57.8,50.6,30.35,North,0,0.0,0.0,77,0.00,,,0.00,WUHU216HW,2013-01-08 20:35:00,
2013-01-08 15:40:00,57.8,50.6,30.36,North,0,0.0,0.0,77,0.00,,,0.00,WUHU216HW,2013-01-08 20:40:00,
2013-01-08 15:45:00,58.1,50.9,30.36,North,0,0.0,0.0,77,0.00,,,0.00,WUHU216HW,2013-01-08 20:45:00,
2013-01-08 15:50:00,58.0,50.8,30.36,North,0,0.0,0.0,77,0.00,,,0.00,WUHU216HW,2013-01-08 20:50:00,
2013-01-08 15:55:00,57.8,50.6,30.36,North,0,0.0,0.0,77,0.00,,,0.00,WUHU216HW,2013-01-08 20:55:00,
2013-01-08 16:00:00,57.4,50.2,30.36,North,0,0.0,0.0,77,0.00,,,0.00,WUHU216HW,2013-01-08 21:00:00,
2013-01-08 16:05:00,57.1,50.2,30.36,North,0,0.0,0.0,78,0.00,,,0.00,WUHU216HW,2013-01-08 21:05:00,
2013-01-08 16:10:00,56.9,50.0,30.36,North,0,0.0,0.0,78,0.00,,,0.00,WUHU216HW,2013-01-08 21:10:00,
2013-01-08 16:15:00,56.9,50.0,30.36,North,0,0.0,0.0,78,0.00,,,0.00,WUHU216HW,2013-01-08 21:15:00,
2013-01-08 16:21:00,56.7,49.9,30.36,North,0,0.0,0.0,78,0.00,,,0.00,WUHU216HW,2013-01-08 21:21:00,
2013-01-08 16:26:00,56.7,49.9,30.36,North,0,0.0,0.0,78,0.00,,,0.00,WUHU216HW,2013-01-08 21:26:00,
2013-01-08 16:31:00,56.5,49.7,30.36,North,0,0.0,0.0,78,0.00,,,0.00,WUHU216HW,2013-01-08 21:31:00,
2013-01-08 16:36:00,56.2,49.7,30.36,North,0,0.0,0.0,79,0.00,,,0.00,WUHU216HW,2013-01-08 21:36:00,
2013-01-08 16:41:00,55.6,49.1,30.36,North,0,0.0,0.0,79,0.00,,,0.00,WUHU216HW,2013-01-08 21:41:00,
2013-01-08 16:46:00,55.4,48.6,30.36,North,0,0.0,0.0,78,0.00,,,0.00,WUHU216HW,2013-01-08 21:46:00,
2013-01-08 16:51:00,55.3,48.5,30.36,North,0,0.0,0.0,78,0.00,,,0.00,WUHU216HW,2013-01-08 21:51:00,
2013-01-08 16:56:00,55.1,48.3,30.36,North,0,0.0,0.0,78,0.00,,,0.00,WUHU216HW,2013-01-08 21:56:00,
2013-01-08 17:01:00,55.1,48.3,30.36,North,0,0.0,0.0,78,0.00,,,0.00,WUHU216HW,2013-01-08 22:01:00,
2013-01-08 17:06:00,54.9,48.2,30.36,North,0,0.0,0.0,78,0.00,,,0.00,WUHU216HW,2013-01-08 22:06:00,
2013-01-08 17:11:00,54.7,48.0,30.36,North,0,0.0,0.0,78,0.00,,,0.00,WUHU216HW,2013-01-08 22:11:00,
2013-01-08 17:16:00,54.4,48.0,30.36,North,0,0.0,0.0,79,0.00,,,0.00,WUHU216HW,2013-01-08 22:16:00,
2013-01-08 17:21:00,54.2,47.8,30.36,North,0,0.0,0.0,79,0.00,,,0.00,WUHU216HW,2013-01-08 22:21:00,
2013-01-08 17:26:00,54.2,47.8,30.36,North,0,0.0,0.0,79,0.00,,,0.00,WUHU216HW,2013-01-08 22:26:00,
2013-01-08 17:31:00,54.0,47.7,30.36,North,0,0.0,0.0,79,0.00,,,0.00,WUHU216HW,2013-01-08 22:31:00,
2013-01-08 17:36:00,54.0,47.7,30.37,North,0,0.0,0.0,79,0.00,,,0.00,WUHU216HW,2013-01-08 22:36:00,
2013-01-08 17:41:00,53.8,47.5,30.36,North,0,0.0,0.0,79,0.00,,,0.00,WUHU216HW,2013-01-08 22:41:00,
2013-01-08 17:46:00,53.8,47.9,30.36,North,0,0.0,0.0,80,0.00,,,0.00,WUHU216HW,2013-01-08 22:46:00,
2013-01-08 17:51:00,54.0,48.1,30.37,North,0,0.0,0.0,80,0.00,,,0.00,WUHU216HW,2013-01-08 22:51:00,
2013-01-08 17:56:00,53.8,47.9,30.37,North,0,0.0,0.0,80,0.00,,,0.00,WUHU216HW,2013-01-08 22:56:00,
2013-01-08 18:01:00,53.8,47.9,30.38,North,0,0.0,0.0,80,0.00,,,0.00,WUHU216HW,2013-01-08 23:01:00,
2013-01-08 18:07:00,53.8,47.9,30.37,North,0,0.0,0.0,80,0.00,,,0.00,WUHU216HW,2013-01-08 23:07:00,
2013-01-08 18:12:00,53.8,47.9,30.37,North,0,0.0,0.0,80,0.00,,,0.00,WUHU216HW,2013-01-08 23:12:00,
2013-01-08 18:17:00,54.0,48.1,30.37,North,0,0.0,0.0,80,0.00,,,0.00,WUHU216HW,2013-01-08 23:17:00,
2013-01-08 18:22:00,53.8,47.9,30.37,North,0,0.0,0.0,80,0.00,,,0.00,WUHU216HW,2013-01-08 23:22:00,
2013-01-08 18:27:00,53.6,47.7,30.37,North,0,0.0,0.0,80,0.00,,,0.00,WUHU216HW,2013-01-08 23:27:00,
2013-01-08 18:32:00,53.6,47.7,30.37,North,0,0.0,0.0,80,0.00,,,0.00,WUHU216HW,2013-01-08 23:32:00,
2013-01-08 18:37:00,53.6,47.7,30.37,North,0,0.0,0.0,80,0.00,,,0.00,WUHU216HW,2013-01-08 23:37:00,
2013-01-08 18:42:00,53.5,47.5,30.37,North,0,0.0,0.0,80,0.00,,,0.00,WUHU216HW,2013-01-08 23:42:00,
2013-01-08 18:47:00,53.6,47.7,30.37,North,0,0.0,0.0,80,0.00,,,0.00,WUHU216HW,2013-01-08 23:47:00,
2013-01-08 18:52:00,53.6,47.7,30.37,North,0,0.0,0.0,80,0.00,,,0.00,WUHU216HW,2013-01-08 23:52:00,
2013-01-08 18:57:00,53.6,47.7,30.37,North,0,0.0,0.0,80,0.00,,,0.00,WUHU216HW,2013-01-08 23:57:00,
2013-01-08 19:02:00,53.8,47.9,30.37,North,0,0.0,0.0,80,0.00,,,0.00,WUHU216HW,2013-01-09 00:02:00,
2013-01-08 19:07:00,53.8,47.9,30.38,North,0,0.0,0.0,80,0.00,,,0.00,WUHU216HW,2013-01-09 00:07:00,
2013-01-08 19:12:00,53.8,47.9,30.38,North,0,0.0,0.0,80,0.00,,,0.00,WUHU216HW,2013-01-09 00:12:00,
2013-01-08 19:17:00,53.8,47.9,30.38,North,0,0.0,0.0,80,0.00,,,0.00,WUHU216HW,2013-01-09 00:17:00,
2013-01-08 19:22:00,53.6,47.7,30.38,North,0,0.0,0.0,80,0.00,,,0.00,WUHU216HW,2013-01-09 00:22:00,
2013-01-08 19:27:00,53.6,47.7,30.39,North,0,0.0,0.0,80,0.00,,,0.00,WUHU216HW,2013-01-09 00:27:00,
2013-01-08 19:32:00,53.8,47.9,30.39,North,0,0.0,0.0,80,0.00,,,0.00,WUHU216HW,2013-01-09 00:32:00,
2013-01-08 19:37:00,53.8,47.9,30.39,North,0,0.0,0.0,80,0.00,,,0.00,WUHU216HW,2013-01-09 00:37:00,
2013-01-08 19:43:00,53.8,47.9,30.39,North,0,0.0,0.0,80,0.00,,,0.00,WUHU216HW,2013-01-09 00:43:00,
2013-01-08 19:48:00,53.8,47.9,30.39,North,0,0.0,0.0,80,0.00,,,0.00,WUHU216HW,2013-01-09 00:48:00,
2013-01-08 19:53:00,53.8,47.9,30.39,North,0,0.0,0.0,80,0.00,,,0.00,WUHU216HW,2013-01-09 00:53:00,
2013-01-08 19:58:00,53.8,47.9,30.39,North,0,0.0,0.0,80,0.00,,,0.00,WUHU216HW,2013-01-09 00:58:00,
2013-01-08 20:03:00,54.0,48.1,30.39,North,0,0.0,0.0,80,0.00,,,0.00,WUHU216HW,2013-01-09 01:03:00,
2013-01-08 20:08:00,54.0,48.1,30.39,North,0,0.0,0.0,80,0.00,,,0.00,WUHU216HW,2013-01-09 01:08:00,
2013-01-08 20:13:00,54.0,48.1,30.39,North,0,0.0,0.0,80,0.00,,,0.00,WUHU216HW,2013-01-09 01:13:00,
2013-01-08 20:18:00,54.0,48.1,30.39,North,0,0.0,0.0,80,0.00,,,0.00,WUHU216HW,2013-01-09 01:18:00,
2013-01-08 20:23:00,54.0,48.1,30.39,North,0,0.0,0.0,80,0.00,,,0.00,WUHU216HW,2013-01-09 01:23:00,
2013-01-08 20:28:00,54.0,48.1,30.39,North,0,0.0,0.0,80,0.00,,,0.00,WUHU216HW,2013-01-09 01:28:00,
2013-01-08 20:33:00,54.0,48.1,30.38,North,0,0.0,0.0,80,0.00,,,0.00,WUHU216HW,2013-01-09 01:33:00,
2013-01-08 20:38:00,54.2,48.2,30.39,North,0,0.0,0.0,80,0.00,,,0.00,WUHU216HW,2013-01-09 01:38:00,
2013-01-08 20:43:00,54.0,48.1,30.39,North,0,0.0,0.0,80,0.00,,,0.00,WUHU216HW,2013-01-09 01:43:00,
2013-01-08 20:48:00,54.0,48.1,30.39,North,0,0.0,0.0,80,0.00,,,0.00,WUHU216HW,2013-01-09 01:48:00,
2013-01-08 20:53:00,54.0,48.1,30.39,North,0,0.0,0.0,80,0.00,,,0.00,WUHU216HW,2013-01-09 01:53:00,
2013-01-08 20:58:00,54.0,48.1,30.39,North,0,0.0,0.0,80,0.00,,,0.00,WUHU216HW,2013-01-09 01:58:00,
2013-01-08 21:04:00,54.0,48.1,30.38,North,0,0.0,0.0,80,0.00,,,0.00,WUHU216HW,2013-01-09 02:04:00,
2013-01-08 21:09:00,53.8,47.9,30.39,North,0,0.0,0.0,80,0.00,,,0.00,WUHU216HW,2013-01-09 02:09:00,
2013-01-08 21:14:00,53.8,47.9,30.39,North,0,0.0,0.0,80,0.00,,,0.00,WUHU216HW,2013-01-09 02:14:00,
2013-01-08 21:19:00,53.8,47.9,30.39,North,0,0.0,0.0,80,0.00,,,0.00,WUHU216HW,2013-01-09 02:19:00,
2013-01-08 21:24:00,54.0,48.1,30.39,North,0,0.0,0.0,80,0.00,,,0.00,WUHU216HW,2013-01-09 02:24:00,
2013-01-08 21:29:00,54.0,48.1,30.38,North,0,0.0,0.0,80,0.00,,,0.00,WUHU216HW,2013-01-09 02:29:00,
2013-01-08 21:34:00,54.0,48.1,30.38,North,0,0.0,0.0,80,0.00,,,0.00,WUHU216HW,2013-01-09 02:34:00,
2013-01-08 21:39:00,54.0,48.1,30.38,North,0,0.0,0.0,80,0.00,,,0.00,WUHU216HW,2013-01-09 02:39:00,
2013-01-08 21:44:00,54.0,48.1,30.38,North,0,0.0,0.0,80,0.00,,,0.00,WUHU216HW,2013-01-09 02:44:00,
2013-01-08 21:49:00,54.0,48.1,30.38,North,0,0.0,0.0,80,0.00,,,0.00,WUHU216HW,2013-01-09 02:49:00,
2013-01-08 21:54:00,54.2,48.2,30.38,North,0,0.0,0.0,80,0.00,,,0.00,WUHU216HW,2013-01-09 02:54:00,
2013-01-08 21:59:00,54.2,48.2,30.38,North,0,0.0,0.0,80,0.00,,,0.00,WUHU216HW,2013-01-09 02:59:00,
2013-01-08 22:04:00,54.2,48.2,30.38,North,0,0.0,0.0,80,0.00,,,0.00,WUHU216HW,2013-01-09 03:04:00,
2013-01-08 22:09:00,54.0,48.1,30.38,North,0,0.0,0.0,80,0.00,,,0.00,WUHU216HW,2013-01-09 03:09:00,
2013-01-08 22:14:00,53.8,47.9,30.38,North,0,0.0,0.0,80,0.00,,,0.00,WUHU216HW,2013-01-09 03:14:00,
2013-01-08 22:19:00,54.0,48.1,30.38,North,0,0.0,0.0,80,0.00,,,0.00,WUHU216HW,2013-01-09 03:19:00,
2013-01-08 22:24:00,54.0,48.1,30.38,North,0,0.0,0.0,80,0.00,,,0.00,WUHU216HW,2013-01-09 03:24:00,
2013-01-08 22:29:00,53.8,47.9,30.37,North,0,0.0,0.0,80,0.00,,,0.00,WUHU216HW,2013-01-09 03:29:00,
2013-01-08 22:34:00,53.6,47.7,30.37,North,0,0.0,0.0,80,0.00,,,0.00,WUHU216HW,2013-01-09 03:34:00,
2013-01-08 22:39:00,53.6,47.7,30.37,North,0,0.0,0.0,80,0.00,,,0.00,WUHU216HW,2013-01-09 03:39:00,
2013-01-08 22:44:00,53.8,47.9,30.38,North,0,0.0,0.0,80,0.00,,,0.00,WUHU216HW,2013-01-09 03:44:00,
2013-01-08 22:49:00,53.6,48.0,30.37,North,0,0.0,0.0,81,0.00,,,0.00,WUHU216HW,2013-01-09 03:49:00,
2013-01-08 22:54:00,53.8,48.2,30.37,North,0,0.0,0.0,81,0.00,,,0.00,WUHU216HW,2013-01-09 03:54:00,
2013-01-08 23:00:00,53.8,48.2,30.38,North,0,0.0,0.0,81,0.00,,,0.00,WUHU216HW,2013-01-09 04:00:00,
2013-01-08 23:05:00,54.0,48.3,30.37,North,0,0.0,0.0,81,0.00,,,0.00,WUHU216HW,2013-01-09 04:05:00,
2013-01-08 23:10:00,54.0,48.3,30.38,North,0,0.0,0.0,81,0.00,,,0.00,WUHU216HW,2013-01-09 04:10:00,
2013-01-08 23:15:00,54.0,48.3,30.38,North,0,0.0,0.0,81,0.00,,,0.00,WUHU216HW,2013-01-09 04:15:00,
2013-01-08 23:20:00,54.2,48.5,30.38,North,0,0.0,0.0,81,0.00,,,0.00,WUHU216HW,2013-01-09 04:20:00,
2013-01-08 23:25:00,54.4,48.7,30.37,North,0,0.0,0.0,81,0.00,,,0.00,WUHU216HW,2013-01-09 04:25:00,
2013-01-08 23:30:00,54.2,48.5,30.38,North,0,0.0,0.0,81,0.00,,,0.00,WUHU216HW,2013-01-09 04:30:00,
2013-01-08 23:35:00,54.2,48.5,30.37,North,0,0.0,0.0,81,0.00,,,0.00,WUHU216HW,2013-01-09 04:35:00,
2013-01-08 23:40:00,54.2,48.5,30.38,North,0,0.0,0.0,81,0.00,,,0.00,WUHU216HW,2013-01-09 04:40:00,
2013-01-08 23:45:00,54.2,48.5,30.37,North,0,0.0,0.0,81,0.00,,,0.00,WUHU216HW,2013-01-09 04:45:00,
2013-01-08 23:50:00,54.2,48.2,30.37,North,0,0.0,0.0,80,0.00,,,0.00,WUHU216HW,2013-01-09 04:50:00,
2013-01-08 23:55:00,54.0,48.1,30.37,North,0,0.0,0.0,80,0.00,,,0.00,WUHU216HW,2013-01-09 04:55:00,